Other Public Products
Issued by NWS Charleston, SC

Current Version | Previous Version | Text Only | Print | Product List | Glossary On
Versions: 1 2 3 4 5 6 7 8 9 10 11 12 13 14 15 16 17 18 19 20 21 22 23 24 25 26 27 28 29 30 31 32 33 34 35 36 37 38 39 40 41 42 43 44 45 46 47 48 49 50
585 FPUS82 KCHS 191927 OPUCHS TEST...KCHS/KSAV Gateway Observations...TEST National Weather Service Charleston SC 200 PM EST SUN NOV 19 2017 NOTE: "fair" indicates few or no clouds below 12,000 feet with no significant weather and/or obstructions to visibility. SCZ050-WAZ558-NCZ071-TXZ119-213-PAZ071-DCZ001-FLZ074-172-MI076- NYZ176-178-MAZ016-IL014-TNZ027-NJZ106-GAZ044-MD014-192000- ...Gateway Observations for Charleston International... CITY SKY/WX TMP DP RH WIND PRES REMARKS Chas Airport MOSUNNY 66 44 45 NW12 29.84S Seattle CLOUDY 50 33 52 SW8 29.87F Charlotte MOSUNNY 57 27 31 W9G21 29.89S Dallas DFW PTSUNNY 61 28 28 VRB7 30.31F Dallas Love PTSUNNY 63 26 24 N9 30.32F Philladelphia PTSUNNY 52 28 39 NW21G40 29.62R Wash National PTSUNNY 52 28 39 NW16G30 29.76R Baltimore PTSUNNY 47 28 47 W26G38 29.72R Miami MOSUNNY 83 60 45 W6 29.90F Detroit CLOUDY 36 24 62 W18G25 29.86R WCI 26 Newark PTSUNNY 51 29 42 NW25G37 29.54R Laguardia PTSUNNY 50 31 48 NW32G41 29.52R J F K PTSUNNY 51 31 46 NW30G39 29.51R Boston Logan MOSUNNY 49 32 52 W26G43 29.25R Ft. Lauderdale SUNNY 81 59 47 W8 29.89F Chicago O`Hare MOSUNNY 34 18 52 W14G21 30.03F WCI 25 Chicago Midway MOSUNNY 35 20 54 W15 30.04F WCI 25 Houston Bush PTSUNNY 65 31 28 N14 30.27F Houston Hobby MOSUNNY 64 31 28 N13 30.26F Nashville MOSUNNY 48 20 32 W10G17 30.15F Atlanta MOSUNNY 54 32 43 N17 30.01S $$ GAZ044-118-TXZ119-213-NCZ071-DCZ001-MDZ014-506-PAZ021-071-NJZ106- NYZ176-178-MAZ106-OHZ011-021-055-MIZ076-KYZ091-ILZ014-INZ047- MNZ060-ONZ431-192000- ...Gateway Observations for Savannah International... CITY SKY/WX TMP DP RH WIND PRES REMARKS Savannah Arpt MOSUNNY 66 44 45 NW14 29.90S Atlanta MOSUNNY 54 32 43 N17 30.01S Charlotte MOSUNNY 57 27 31 W9G21 29.89S Dallas DFW PTSUNNY 61 28 28 VRB7 30.31F Houston Bush PTSUNNY 65 31 28 N14 30.27F Wash National PTSUNNY 52 28 39 NW16G30 29.76R Wash Dulles PTSUNNY 47 29 49 NW20 29.76F Baltimore PTSUNNY 47 28 47 W26G38 29.72R Philadelphia PTSUNNY 52 28 39 NW21G40 29.62R Newark PTSUNNY 51 29 42 NW25G37 29.54R Laguardia PTSUNNY 50 31 48 NW32G41 29.52R J F K PTSUNNY 51 31 46 NW30G39 29.51R Boston MOSUNNY 49 32 52 W26G43 29.25R Pittsburg CLOUDY 39 28 64 W15 29.80S WCI 31 Akron FLURRIES 38 27 64 W16G24 29.83R WCI 29 Cleveland CLOUDY 38 28 67 W14 29.86R WCI 30 Cincinnati CLOUDY 37 27 67 W16G22 30.02S WCI 28 Columbus CLOUDY 39 32 76 W17G24 29.94S WCI 30 Detroit CLOUDY 36 24 62 W18G25 29.86R WCI 26 Chicago O`Hare MOSUNNY 34 18 52 W14G21 30.03F WCI 25 Minneapolis PTSUNNY 35 19 52 SW5 29.96F WCI 31 Indianapolis PTSUNNY 32 22 66 W20 30.09R WCI 20 Toronto Canada HAIL 37 25 60 NW18G25 29.66R WCI 27 $$

USA.gov is the U.S. government's official web portal to all federal, state and local government web resources and services.